[[{"header":{"parameterUnit":"m.s-1","parameterCategory":1,"la1":30.2991,"la2":30.254,"lo1":-89.0895,"lo2":-89.0444,"dy":0.0017,"dx":0.0017,"nx":28,"ny":28,"refTime":"2024-10-02T03:00:00:Z","depth":0,"parameterNumber":2,"parameterNumberName":"U-component_of_WINDS"},"data":[0,0,0,0,0,0,0,0,0,0,0,0,0,0,0,0,0,0,0,0,0,0,0,0,0,0,0,0,0,0,0,0,0,0,0,0,0,0,0,0,0,0,0,0,0,0,0,0,0,0,0,0,0,0,0,0,0,0,-2.2297,-2.2298,0,-2.2318,-2.2319,-2.2319,-2.2305,-2.2304,-2.2304,-2.2303,-2.2325,-2.2327,-2.2328,0,0,0,0,0,0,0,0,0,0,0,0,0,-2.2246,-2.2247,-2.2297,-2.2298,-2.2298,-2.2318,-2.2319,-2.2319,-2.2305,-2.2304,-2.2304,-2.2303,-2.2325,-2.2326,-2.2328,0,0,0,0,0,0,0,0,0,0,0,0,0,-2.2268,-2.2248,-2.2297,-2.2293,-2.2293,-2.2318,-2.2319,-2.2319,-2.2305,-2.2304,-2.2303,-2.2303,-2.2325,-2.2326,-2.2328,-2.2358,0,0,-2.2334,-2.2334,0,0,0,0,0,0,0,0,-2.2267,-2.227,-2.2294,-2.2294,-2.2294,-2.2308,-2.2309,-2.2332,-2.2306,-2.2301,-2.2303,-2.2302,-2.232,-2.2323,-2.2329,-2.2359,-2.236,-2.2334,-2.2335,-2.2336,-2.2336,0,0,0,0,0,0,0,-2.2265,-2.2269,-2.2306,-2.2294,-2.2294,-2.2291,-2.2293,-2.2313,-2.2316,-2.2301,-2.23,-2.2303,-2.232,-2.2327,-2.2329,-2.236,-2.2334,-2.2335,-2.2336,-2.2337,-2.2418,-2.2419,0,0,0,0,0,0,-2.2264,-2.2268,-2.2305,-2.2306,-2.2278,-2.2293,-2.2295,-2.2304,-2.2315,-2.2316,-2.2304,-2.2302,-2.2324,-2.2327,-2.233,-2.2367,-2.2335,-2.2337,-2.2338,-2.2416,-2.2418,-2.2419,0,0,0,0,0,0,-2.2263,-2.2267,-2.2304,-2.2287,-2.2291,-2.2295,-2.2305,-2.2305,-2.2312,-2.2317,-2.2318,-2.231,-2.2324,-2.2327,-2.2351,-2.2367,-2.2338,-2.234,-2.2415,-2.2417,-2.2418,-2.244,0,0,0,0,0,0,-2.2261,-2.2267,-2.2278,-2.2287,-2.2292,-2.2325,-2.2306,-2.2306,-2.2315,-2.2313,-2.2323,-2.2324,-2.2323,-2.2349,-2.2353,-2.2369,-2.2341,-2.2414,-2.2416,-2.2418,-2.2438,-2.2442,-2.2445,0,0,0,0,0,-2.226,-2.2283,-2.2279,-2.2284,-2.2306,-2.2326,-2.2329,-2.2327,-2.2316,-2.2328,-2.2331,-2.2324,-2.2364,-2.2351,-2.2356,-2.2373,-2.2413,-2.2415,-2.2418,-2.2436,-2.2441,-2.2445,0,0,0,0,0,0,-2.2277,-2.2285,-2.228,-2.2307,-2.2316,-2.2324,-2.2338,-2.2333,-2.2345,-2.2343,-2.234,-2.2343,-2.2368,-2.2373,-2.2358,-2.2403,-2.2387,-2.239,-2.2399,-2.2404,-2.2408,-2.2407,-2.2342,0,0,0,0,0,-2.2283,-2.2299,-2.2305,-2.2328,-2.2333,-2.2335,-2.2343,-2.2341,-2.2351,-2.2354,-2.236,-2.2369,-2.2384,-2.2394,-2.2408,-2.2438,-2.244,-2.2452,-2.2456,-2.2459,-2.2462,-2.2479,-2.2485,-2.2427,-2.2427,-2.2427,0,0,-2.2298,-2.2304,-2.2314,-2.2332,-2.2339,-2.2355,-2.2338,-2.2356,-2.2368,-2.2357,-2.2381,-2.2385,-2.2395,-2.2422,-2.2435,-2.2427,-2.2479,-2.2462,-2.2464,-2.2466,-2.2482,-2.2488,-2.2493,-2.2429,-2.2428,-2.2428,0,0,-2.2333,-2.2339,-2.2359,-2.2366,-2.2377,-2.2378,-2.2383,-2.2392,-2.2394,-2.2417,-2.2409,-2.2424,-2.2449,-2.2458,-2.2465,-2.2503,-2.2497,-2.2508,-2.2529,-2.2545,-2.255,-2.2554,-2.2569,-2.2574,-2.2511,-2.2511,-2.2511,0,-2.235,-2.2374,-2.2371,-2.2389,-2.2398,-2.2388,-2.241,-2.2416,-2.2431,-2.2437,-2.2428,-2.2461,-2.2467,-2.2496,-2.2506,-2.2512,-2.2518,-2.2507,-2.2549,-2.2554,-2.2557,-2.2571,-2.2577,-2.2512,-2.2512,-2.2512,-2.2512,0,-2.2395,-2.2411,-2.2427,-2.2441,-2.2451,-2.2471,-2.2471,-2.2482,-2.2479,-2.2481,-2.2505,-2.2512,-2.2528,-2.2534,-2.2532,-2.2564,-2.2559,-2.255,-2.2534,-2.2564,-2.2577,-2.2583,-2.2514,-2.2514,-2.2513,-2.2513,0,0,-2.2442,-2.2454,-2.246,-2.2467,-2.2477,-2.249,-2.251,-2.2525,-2.2535,-2.2545,-2.2562,-2.2583,-2.2575,-2.2584,-2.2582,-2.2596,-2.2627,-2.2585,-2.2585,-2.2594,-2.2665,-2.2673,-2.2679,-2.2623,-2.2624,-2.2624,-2.2664,0,-2.2478,-2.2512,-2.251,-2.2542,-2.2558,-2.2549,-2.2566,-2.2575,-2.2578,-2.2592,-2.2594,-2.2611,-2.2598,-2.2603,-2.2617,-2.262,-2.2642,-2.2617,-2.2639,-2.264,-2.2638,-2.2685,-2.2694,-2.2731,-2.2669,-2.267,-2.2671,0,-2.2525,-2.2538,-2.2571,-2.258,-2.2587,-2.2602,-2.2617,-2.263,-2.264,-2.264,-2.265,-2.2646,-2.2666,-2.2649,-2.2677,-2.2661,-2.2669,-2.2673,-2.2674,-2.2677,-2.2658,-2.2691,-2.2743,-2.2749,-2.2679,-2.2678,-2.2677,0,-2.2558,-2.2582,-2.2606,-2.2612,-2.2623,-2.2634,-2.2639,-2.2648,-2.2657,-2.2669,-2.2676,-2.269,-2.2698,-2.271,-2.271,-2.2697,-2.2739,-2.2721,-2.2741,-2.2741,-2.2752,-2.2751,-2.2807,-2.2755,-2.2755,-2.2755,-2.2755,0,-2.26,-2.2621,-2.2621,-2.2636,-2.266,-2.2657,-2.2681,-2.2685,-2.2693,-2.2708,-2.2701,-2.2716,-2.2714,-2.2729,-2.2729,-2.2753,-2.2757,-2.2759,-2.2759,-2.276,-2.276,-2.2767,-2.2765,-2.2756,-2.2756,-2.2756,-2.2755,0,-2.2641,-2.2641,-2.2667,-2.2675,-2.2677,-2.2695,-2.2702,-2.2716,-2.2718,-2.2738,-2.2742,-2.2745,-2.2762,-2.2763,-2.2783,-2.2783,-2.2813,-2.2809,-2.281,-2.281,-2.283,-2.2829,-2.2893,-2.2902,-2.2843,-2.2843,-2.2844,0,-2.2668,-2.2685,-2.2694,-2.2704,-2.271,-2.2726,-2.2736,-2.2733,-2.2744,-2.2756,-2.2769,-2.2786,-2.28,-2.2828,-2.2832,-2.2848,-2.2845,-2.2867,-2.2848,-2.2849,-2.2847,-2.2847,-2.2849,-2.2871,-2.2872,-2.2872,-2.2873,0,-2.2717,-2.2717,-2.2731,-2.2746,-2.2757,-2.2769,-2.2779,-2.2788,-2.2787,-2.2799,-2.2816,-2.2827,-2.2847,-2.2865,-2.288,-2.2885,-2.2879,-2.2878,-2.2884,-2.2886,-2.2887,-2.2888,-2.2822,-2.2877,-2.2877,-2.2876,-2.2876,-2.2876,-2.2753,-2.2768,-2.2777,-2.2793,-2.2801,-2.2811,-2.2825,-2.2828,-2.2843,-2.286,-2.2857,-2.2877,-2.2887,-2.2907,-2.2913,-2.293,-2.2922,-2.293,-2.2932,-2.2935,-2.2938,-2.2883,-2.2932,-2.2932,-2.2932,-2.2932,-2.2932,0,-2.2803,-2.2809,-2.2824,-2.2839,-2.2852,-2.2844,-2.2855,-2.2867,-2.2884,-2.2894,-2.2907,-2.2928,-2.2945,-2.295,-2.2966,-2.2978,-2.2976,-2.2983,-2.2982,-2.2984,-2.2942,-2.2937,-2.2984,-2.2984,-2.2984,-2.2984,-2.2984,-2.2984,-2.2831,-2.2855,-2.2856,-2.2884,-2.289,-2.2909,-2.2917,-2.2926,-2.2934,-2.2957,-2.2971,-2.2974,-2.2982,-2.2999,-2.3014,-2.3015,-2.3022,-2.303,-2.3031,-2.2992,-2.2987,-2.2982,-2.2976,-2.3032,-2.3032,-2.3071,-2.3071,-2.3072]},{"header":{"parameterUnit":"m.s-1","parameterCategory":1,"la1":30.2991,"la2":30.254,"lo1":-89.0895,"lo2":-89.0444,"dy":0.0017,"dx":0.0017,"nx":28,"ny":28,"refTime":"2024-10-02T03:00:00:Z","depth":0,"parameterNumber":3,"parameterNumberName":"V-component_of_WINDS"},"data":[0,0,0,0,0,0,0,0,0,0,0,0,0,0,0,0,0,0,0,0,0,0,0,0,0,0,0,0,0,0,0,0,0,0,0,0,0,0,0,0,0,0,0,0,0,0,0,0,0,0,0,0,0,0,0,0,0,0,-3.7129,-3.7129,0,-3.7119,-3.7119,-3.7119,-3.707,-3.7069,-3.7068,-3.7067,-3.7057,-3.7058,-3.7059,0,0,0,0,0,0,0,0,0,0,0,0,0,-3.7106,-3.7107,-3.7129,-3.7129,-3.7128,-3.7119,-3.7119,-3.7119,-3.7071,-3.7069,-3.7068,-3.7067,-3.7057,-3.7058,-3.7059,0,0,0,0,0,0,0,0,0,0,0,0,0,-3.7108,-3.7107,-3.7129,-3.7103,-3.7101,-3.7119,-3.7119,-3.7119,-3.7071,-3.7069,-3.7067,-3.7066,-3.7057,-3.7058,-3.7059,-3.7101,0,0,-3.7063,-3.7063,0,0,0,0,0,0,0,0,-3.7108,-3.7109,-3.7107,-3.7105,-3.7102,-3.7094,-3.7107,-3.7113,-3.7071,-3.7082,-3.7067,-3.7065,-3.7071,-3.7071,-3.7073,-3.71,-3.71,-3.7063,-3.7064,-3.7064,-3.7064,0,0,0,0,0,0,0,-3.7108,-3.7109,-3.7125,-3.7107,-3.7104,-3.7093,-3.7091,-3.7108,-3.7086,-3.7081,-3.7078,-3.7077,-3.7069,-3.7072,-3.7072,-3.71,-3.7063,-3.7064,-3.7065,-3.7065,-3.7162,-3.7164,0,0,0,0,0,0,-3.7111,-3.7109,-3.7125,-3.7125,-3.7101,-3.7094,-3.7093,-3.7099,-3.7086,-3.7082,-3.7079,-3.7075,-3.7071,-3.7071,-3.7072,-3.7121,-3.7064,-3.7065,-3.7066,-3.7161,-3.7163,-3.7165,0,0,0,0,0,0,-3.7111,-3.7113,-3.7126,-3.7116,-3.7117,-3.7097,-3.7104,-3.7099,-3.7102,-3.7084,-3.708,-3.7085,-3.7069,-3.707,-3.7094,-3.712,-3.7066,-3.7067,-3.7158,-3.7161,-3.7164,-3.7219,0,0,0,0,0,0,-3.7111,-3.7113,-3.7129,-3.7117,-3.7117,-3.7148,-3.7105,-3.71,-3.7104,-3.7099,-3.7089,-3.7086,-3.7068,-3.7093,-3.7095,-3.712,-3.7068,-3.7156,-3.716,-3.7163,-3.7215,-3.7223,-3.7231,0,0,0,0,0,-3.711,-3.7145,-3.713,-3.7132,-3.7136,-3.715,-3.715,-3.7129,-3.7106,-3.7122,-3.7111,-3.7086,-3.7116,-3.7096,-3.7098,-3.7124,-3.7154,-3.7159,-3.7163,-3.7211,-3.7222,-3.723,0,0,0,0,0,0,-3.716,-3.7143,-3.7126,-3.7158,-3.7156,-3.7142,-3.7161,-3.714,-3.7145,-3.714,-3.7113,-3.7111,-3.714,-3.7134,-3.7111,-3.7164,-3.7131,-3.7136,-3.7167,-3.7177,-3.7185,-3.7186,-3.7069,0,0,0,0,0,-3.7175,-3.7187,-3.7171,-3.7201,-3.72,-3.7181,-3.7186,-3.717,-3.7166,-3.7165,-3.7156,-3.7154,-3.7163,-3.7169,-3.7177,-3.7213,-3.7211,-3.7232,-3.724,-3.7247,-3.7252,-3.7272,-3.7282,-3.7179,-3.7179,-3.7178,0,0,-3.7205,-3.7197,-3.7207,-3.721,-3.7207,-3.7221,-3.718,-3.7196,-3.7206,-3.7168,-3.719,-3.7183,-3.7179,-3.721,-3.7224,-3.7207,-3.728,-3.7252,-3.7258,-3.7259,-3.7277,-3.7287,-3.7296,-3.7181,-3.7181,-3.718,0,0,-3.7268,-3.7263,-3.7288,-3.7285,-3.7281,-3.7267,-3.7274,-3.7263,-3.7257,-3.7279,-3.7251,-3.7262,-3.7278,-3.7277,-3.7278,-3.7342,-3.732,-3.7345,-3.7386,-3.7406,-3.7414,-3.7421,-3.7445,-3.7454,-3.7349,-3.7349,-3.7349,0,-3.7307,-3.7327,-3.7303,-3.7321,-3.7324,-3.729,-3.7315,-3.7313,-3.7312,-3.7314,-3.7295,-3.7315,-3.731,-3.7341,-3.7357,-3.7358,-3.7365,-3.7346,-3.7415,-3.7422,-3.7428,-3.7451,-3.7459,-3.7353,-3.7352,-3.7352,-3.7352,0,-3.7375,-3.7389,-3.7409,-3.7409,-3.7414,-3.7436,-3.7416,-3.7423,-3.7407,-3.7396,-3.742,-3.7412,-3.7418,-3.7424,-3.7408,-3.7453,-3.7443,-3.742,-3.7386,-3.7442,-3.7462,-3.747,-3.7357,-3.7356,-3.7355,-3.7354,0,0,-3.7469,-3.7456,-3.7464,-3.7464,-3.7457,-3.7467,-3.7487,-3.7493,-3.7501,-3.7501,-3.7518,-3.7532,-3.7511,-3.7513,-3.7496,-3.7514,-3.7566,-3.7489,-3.7488,-3.7504,-3.7617,-3.7635,-3.7645,-3.7551,-3.7553,-3.7554,-3.7618,0,-3.7531,-3.7565,-3.7544,-3.7582,-3.7595,-3.7563,-3.7581,-3.7578,-3.7569,-3.7579,-3.7568,-3.7579,-3.755,-3.7551,-3.7567,-3.7556,-3.7588,-3.7551,-3.7567,-3.7568,-3.7571,-3.7656,-3.7675,-3.7735,-3.7625,-3.7627,-3.7628,0,-3.7606,-3.761,-3.7649,-3.764,-3.7645,-3.7662,-3.7666,-3.7676,-3.7673,-3.7664,-3.7667,-3.7646,-3.7666,-3.7632,-3.7659,-3.7635,-3.764,-3.7636,-3.7638,-3.7639,-3.7602,-3.7661,-3.7754,-3.7764,-3.764,-3.7639,-3.7638,0,-3.7673,-3.7688,-3.7713,-3.7714,-3.7704,-3.7716,-3.7713,-3.7708,-3.7713,-3.7717,-3.772,-3.7726,-3.7729,-3.7734,-3.7716,-3.7693,-3.7746,-3.7711,-3.7741,-3.7741,-3.7754,-3.7754,-3.7851,-3.7756,-3.7756,-3.7756,-3.7755,0,-3.7744,-3.777,-3.7743,-3.7759,-3.7787,-3.7763,-3.7791,-3.7784,-3.778,-3.7795,-3.7767,-3.778,-3.7755,-3.7766,-3.7752,-3.7777,-3.7779,-3.7773,-3.7769,-3.7777,-3.7777,-3.778,-3.7776,-3.7758,-3.7757,-3.7757,-3.7757,0,-3.7824,-3.7807,-3.7833,-3.7821,-3.7819,-3.784,-3.783,-3.7845,-3.7833,-3.7852,-3.7855,-3.7837,-3.7849,-3.7831,-3.7841,-3.7831,-3.7867,-3.7856,-3.7868,-3.7866,-3.7897,-3.7895,-3.8,-3.8014,-3.7909,-3.791,-3.7911,0,-3.7871,-3.789,-3.788,-3.7888,-3.7886,-3.7899,-3.7904,-3.7882,-3.7888,-3.7887,-3.7902,-3.7911,-3.7918,-3.7939,-3.7927,-3.7935,-3.7925,-3.7961,-3.7926,-3.7933,-3.7927,-3.7927,-3.7929,-3.7969,-3.797,-3.7971,-3.7972,0,-3.7956,-3.7947,-3.7956,-3.7963,-3.797,-3.7974,-3.7975,-3.7983,-3.796,-3.7969,-3.7981,-3.7986,-3.7997,-3.8007,-3.8012,-3.8008,-3.7987,-3.7983,-3.7991,-3.7999,-3.8006,-3.8004,-3.7889,-3.7981,-3.798,-3.7979,-3.7979,-3.7979,-3.8022,-3.8038,-3.8034,-3.8045,-3.8044,-3.8047,-3.806,-3.8051,-3.8061,-3.8068,-3.8054,-3.807,-3.8067,-3.8071,-3.807,-3.8082,-3.8067,-3.8077,-3.808,-3.8083,-3.8089,-3.8003,-3.8083,-3.8083,-3.8082,-3.8082,-3.8082,0,-3.8107,-3.8104,-3.8114,-3.8118,-3.8127,-3.8105,-3.8106,-3.8115,-3.813,-3.8129,-3.8136,-3.8151,-3.8161,-3.815,-3.8159,-3.8171,-3.8161,-3.8174,-3.8173,-3.8173,-3.8102,-3.8095,-3.8182,-3.8182,-3.8182,-3.8182,-3.8182,-3.8182,-3.8153,-3.8179,-3.817,-3.8195,-3.8191,-3.8207,-3.821,-3.8212,-3.8211,-3.8229,-3.8238,-3.823,-3.8226,-3.8234,-3.8242,-3.8239,-3.8244,-3.826,-3.8254,-3.8188,-3.8178,-3.8169,-3.8162,-3.8261,-3.8261,-3.8324,-3.8324,-3.8325]}]]